Soldotna, AK

8:37 AM AKDT on May 22, 2018 (GMT -0800)
Soldotna

Weather History for PASX - March, 2013

Change the Weather History Date:

Friday, March 22, 2013

  Actual Average Record
Temperature  
Mean Temperature 27 °F -  
Max Temperature 35 °F 34 °F 53 °F (2016)
Min Temperature 19 °F 16 °F -19 °F (1975)
Degree Days  
Heating Degree Days 38    
Moisture  
Dew Point 20 °F    
Average Humidity 82    
Maximum Humidity 93    
Minimum Humidity 63    
Precipitation  
Precipitation 0.01 in - - ()
Sea Level Pressure  
Sea Level Pressure 29.92 in    
Wind  
Wind Speed 2 mph (West)    
Max Wind Speed 12 mph    
Max Gust Speed -    
Visibility 9 miles    
Events      
Averages and records for this station are not official NWS values.
T = Trace of Precipitation, MM = Missing Value Source: NWS Daily Summary

Daily Weather History Graph

Daily Weather History Graph

Search for Another Location

Airport or City:

Astronomy

Mar. 22, 2013 Rise Set
Actual Time 7:57 AM AKDT 8:25 PM AKDT
Civil Twilight 7:15 AM AKDT 9:07 PM AKDT
Nautical Twilight 6:24 AM AKDT 9:59 PM AKDT
Astronomical Twilight 5:27 AM AKDT 10:56 PM AKDT
Moon 3:01 PM AKDT 6:09 AM AKDT
Length of Visible Light 13h 51m
Length of Day
12h 27m
Waxing Gibbous, 78% of the Moon is Illuminated
Mar 22
Waxing Gibbous
Mar 27
Full
Apr 2
Last Quarter
Apr 10
New
Apr 18
First Quarter

Hourly Weather History & Observations

Time (AKDT) Temp. Windchill Dew Point Humidity Pressure Visibility Wind Dir Wind Speed Gust Speed Precip Events Conditions
12:16 AM 21.2 °F - 10.4 °F 63% 30.09 in 10.0 mi Calm Calm - N/A   Overcast
12:36 AM 21.2 °F - 10.4 °F 63% 30.09 in 10.0 mi Calm Calm - N/A   Overcast
12:56 AM 21.2 °F - 10.4 °F 63% 30.08 in 10.0 mi Calm Calm - N/A   Overcast
1:16 AM 21.2 °F - 10.4 °F 63% 30.07 in 10.0 mi Calm Calm - N/A   Overcast
1:36 AM 21.2 °F - 10.4 °F 63% 30.06 in 10.0 mi Calm Calm - N/A   Overcast
1:56 AM 21.2 °F - 10.4 °F 63% 30.06 in 10.0 mi Calm Calm - N/A   Overcast
2:16 AM 21.2 °F - 12.2 °F 68% 30.04 in 10.0 mi Calm Calm - N/A   Overcast
2:36 AM 21.2 °F - 10.4 °F 63% 30.04 in 10.0 mi Calm Calm - N/A   Overcast
2:56 AM 21.2 °F - 12.2 °F 68% 30.04 in 10.0 mi Calm Calm - N/A   Overcast
3:16 AM 21.2 °F - 12.2 °F 68% 30.02 in 10.0 mi Calm Calm - N/A   Overcast
3:36 AM 21.2 °F - 10.4 °F 63% 30.02 in 10.0 mi Calm Calm - N/A   Overcast
3:56 AM 21.2 °F 16.4 °F 12.2 °F 68% 30.01 in 10.0 mi West 3.5 mph - N/A   Overcast
4:16 AM 21.2 °F 12.6 °F 12.2 °F 68% 30.00 in 10.0 mi West 6.9 mph - N/A   Overcast
4:36 AM 21.2 °F 11.7 °F 14.0 °F 74% 30.00 in 10.0 mi West 8.1 mph - N/A   Overcast
4:56 AM 21.2 °F - 15.8 °F 80% 30.00 in 10.0 mi Calm Calm - N/A   Overcast
5:16 AM 21.2 °F 16.4 °F 15.8 °F 80% 29.99 in 10.0 mi West 3.5 mph - N/A   Overcast
5:36 AM 23.0 °F - 19.4 °F 86% 29.99 in 10.0 mi Calm Calm - N/A   Overcast
5:56 AM 21.2 °F 16.4 °F 19.4 °F 93% 29.98 in 10.0 mi NNW 3.5 mph - N/A   Overcast
6:16 AM 21.2 °F - 17.6 °F 86% 29.98 in 10.0 mi Calm Calm - N/A   Overcast
6:36 AM 21.2 °F - 17.6 °F 86% 29.98 in 10.0 mi Calm Calm - N/A   Overcast
6:56 AM 21.2 °F - 17.6 °F 86% 29.98 in 10.0 mi Calm Calm - N/A   Mostly Cloudy
7:16 AM 19.4 °F - 15.8 °F 86% 29.98 in 10.0 mi Calm Calm - N/A   Overcast
7:36 AM 19.4 °F - 15.8 °F 86% 29.96 in 10.0 mi Calm Calm - N/A   Overcast
7:56 AM 19.4 °F - 14.0 °F 80% 29.96 in 10.0 mi Calm Calm - N/A   Overcast
8:16 AM 19.4 °F - 17.6 °F 93% 29.96 in 10.0 mi Calm Calm - N/A   Overcast
8:36 AM 19.4 °F - 15.8 °F 86% 29.95 in 10.0 mi Calm Calm - N/A   Overcast
8:56 AM 21.2 °F - 15.8 °F 80% 29.94 in 10.0 mi Calm Calm - N/A   Overcast
9:16 AM 21.2 °F - 17.6 °F 86% 29.94 in 10.0 mi Calm Calm - N/A   Overcast
9:36 AM 21.2 °F - 17.6 °F 86% 29.93 in 10.0 mi Calm Calm - N/A   Overcast
9:56 AM 21.2 °F - 17.6 °F 86% 29.93 in 10.0 mi Calm Calm - N/A   Overcast
10:16 AM 21.2 °F - 17.6 °F 86% 29.93 in 9.0 mi Calm Calm - N/A   Overcast
10:36 AM 21.2 °F - 17.6 °F 86% 29.93 in 1.5 mi Calm Calm - N/A   Overcast
10:56 AM 21.2 °F - 17.6 °F 86% 29.92 in 1.0 mi Calm Calm - N/A   Overcast
11:16 AM 21.2 °F 16.4 °F 19.4 °F 93% 29.92 in 0.2 mi ENE 3.5 mph - N/A   Overcast
11:36 AM 21.2 °F 10.9 °F 19.4 °F 93% 29.91 in 0.5 mi East 9.2 mph - N/A   Overcast
11:56 AM 23.0 °F 11.7 °F 19.4 °F 86% 29.90 in 0.8 mi ESE 11.5 mph - N/A   Overcast
12:16 PM 23.0 °F 18.4 °F 21.2 °F 93% 29.90 in 4.0 mi NNE 3.5 mph - N/A   Overcast
12:36 PM 24.8 °F 20.5 °F 21.2 °F 86% 29.90 in 10.0 mi NW 3.5 mph - 0.01 in   Overcast
12:56 PM 24.8 °F 16.9 °F 21.2 °F 86% 29.90 in 10.0 mi West 6.9 mph - 0.01 in   Overcast
1:16 PM 26.6 °F - 21.2 °F 80% 29.90 in 10.0 mi Calm Calm - N/A   Overcast
1:36 PM 28.4 °F - 24.8 °F 86% 29.89 in 10.0 mi Calm Calm - N/A   Overcast
1:56 PM 28.4 °F 23.3 °F 24.8 °F 86% 29.89 in 10.0 mi East 4.6 mph - N/A   Overcast
2:16 PM 30.2 °F 25.4 °F 26.6 °F 86% 29.88 in 10.0 mi East 4.6 mph - N/A   Overcast
2:36 PM 30.2 °F 26.7 °F 26.6 °F 86% 29.87 in 4.0 mi ENE 3.5 mph - N/A   Overcast
2:56 PM 32.0 °F 27.5 °F 26.6 °F 80% 29.87 in 10.0 mi NNE 4.6 mph - N/A   Overcast
3:16 PM 32.0 °F - 26.6 °F 80% 29.87 in 10.0 mi Calm Calm - N/A   Overcast
3:36 PM 33.8 °F - 28.4 °F 81% 29.86 in 10.0 mi Calm Calm - N/A   Overcast
3:56 PM 33.8 °F - 26.6 °F 75% 29.86 in 10.0 mi Calm Calm - N/A   Overcast
4:16 PM 33.8 °F - 28.4 °F 81% 29.85 in 10.0 mi Calm Calm - N/A   Overcast
4:36 PM 33.8 °F 25.8 °F 28.4 °F 81% 29.85 in 10.0 mi West 10.4 mph - N/A   Overcast
4:56 PM 30.2 °F 22.6 °F 26.6 °F 86% 29.85 in 10.0 mi WNW 8.1 mph - N/A   Overcast
5:16 PM 30.2 °F 24.3 °F 26.6 °F 86% 29.84 in 10.0 mi WNW 5.8 mph - N/A   Overcast
5:36 PM 30.2 °F 24.3 °F 26.6 °F 86% 29.84 in 10.0 mi WNW 5.8 mph - N/A   Overcast
5:56 PM 32.0 °F 28.7 °F 26.6 °F 80% 29.83 in 10.0 mi South 3.5 mph - N/A   Mostly Cloudy
6:16 PM 35.6 °F 28.0 °F 28.4 °F 75% 29.82 in 10.0 mi South 10.4 mph - N/A   Overcast
6:36 PM 33.8 °F 28.6 °F 28.4 °F 81% 29.82 in 10.0 mi SW 5.8 mph - N/A   Overcast
6:56 PM 33.8 °F 25.8 °F 28.4 °F 81% 29.82 in 10.0 mi West 10.4 mph - N/A   Overcast
7:16 PM 30.2 °F 21.3 °F 26.6 °F 86% 29.82 in 7.0 mi West 10.4 mph - N/A   Overcast
7:36 PM 30.2 °F 22.6 °F 24.8 °F 80% 29.82 in 2.5 mi West 8.1 mph - N/A   Overcast
7:56 PM 28.4 °F 21.2 °F 26.6 °F 93% 29.82 in 8.0 mi WNW 6.9 mph - N/A   Mostly Cloudy
8:16 PM 28.4 °F - 26.6 °F 93% 29.82 in 5.0 mi Calm Calm - N/A   Overcast
8:36 PM 30.2 °F - 26.6 °F 86% 29.82 in 2.5 mi Calm Calm - N/A   Overcast
8:56 PM 28.4 °F 22.2 °F 26.6 °F 93% 29.82 in 10.0 mi West 5.8 mph - N/A   Overcast
9:16 PM 28.4 °F 24.6 °F 26.6 °F 93% 29.82 in 10.0 mi West 3.5 mph - N/A   Overcast
9:36 PM 28.4 °F 23.3 °F 26.6 °F 93% 29.82 in 10.0 mi WSW 4.6 mph - N/A   Mostly Cloudy
9:56 PM 28.4 °F 22.2 °F 26.6 °F 93% 29.82 in 10.0 mi WSW 5.8 mph - N/A   Overcast
10:16 PM 28.4 °F 20.4 °F 26.6 °F 93% 29.82 in 10.0 mi SW 8.1 mph - N/A   Overcast
10:36 PM 28.4 °F 20.4 °F 26.6 °F 93% 29.82 in 10.0 mi WSW 8.1 mph - N/A   Scattered Clouds
10:56 PM 28.4 °F 20.4 °F 26.6 °F 93% 29.82 in 10.0 mi WSW 8.1 mph - N/A   Mostly Cloudy
11:16 PM 28.4 °F 22.2 °F 26.6 °F 93% 29.81 in 10.0 mi SW 5.8 mph - N/A   Mostly Cloudy
11:36 PM 26.6 °F 22.6 °F 24.8 °F 93% 29.81 in 10.0 mi SSE 3.5 mph - N/A   Partly Cloudy
11:56 PM 24.8 °F 20.5 °F 23.0 °F 93% 29.81 in 2.5 mi ESE 3.5 mph - N/A   Clear